Location: Wallasey
(53.4265°N, 3.0662°W)
Time: 14:44:55
(UTC+01:00)

NOAA 18 - Pass Details

Date: 24 September 2019
Orbit: 840 x 861 km, 99.1° (Epoch: 21 October)

Event Time Altitude Azimuth Distance (km) Brightness Sun altitude
Exits shadow 22:31:48 15° 222° (SW) 2,161 7.3 -28.5°
Maximum altitude 22:35:10 25° 269° (W) 1,661 7.1 -28.9°
Drops below altitude 10° 22:39:44 10° 324° (NW) 2,512 8.6 -29.3°
Sets 22:42:34 0° 337° (NNW) 3,454 9.4 -29.6°
